Regional Weather Roundup
Issued by NWS Boston, MA

Current Version | Previous Version | Text Only | Print | Product List | Glossary Off
Versions: 1 2 3 4 5 6 7 8 9 10 11 12 13 14 15 16 17 18 19 20 21 22 23 24 25 26 27
000 ASUS41 KBOX 171210 RWRBOX REGIONAL WEATHER ROUNDUP NATIONAL WEATHER SERVICE TAUNTON MA 800 AM EDT TUE OCT 17 2017 NOTE: "FAIR" INDICATES FEW OR NO CLOUDS BELOW 12,000 FEET WITH NO SIGNIFICANT WEATHER AND/OR OBSTRUCTIONS TO VISIBILITY. MAZALL-171300- EASTERN MASSACHUSETTS CITY SKY/WX TMP DP RH WIND PRES REMARKS BOSTON PTCLDY 42 33 70 NW9 30.28R 6HR MIN TEMP: 40; 6HR MAX TEMP: 43; BEVERLY CLEAR 38 33 82 NW6 30.27R LAWRENCE CLEAR 40 33 76 NW3 30.30R BEDFORD CLEAR 33 30 88 CALM 30.28R BLUE HILL N/A 36 31 82 NW9 30.26R WCI 29 NORWOOD CLEAR 39 33 79 CALM 30.29R MARSHFIELD SUNNY 45 37 76 CALM 30.26R PLYMOUTH SUNNY 43 35 73 NW7 30.26R TAUNTON CLEAR 39 32 76 VRB3 30.27R NEW BEDFORD MOSUNNY 39 33 79 N7 30.27R $$ MAZALL-171300- CAPE COD AND THE ISLANDS CITY SKY/WX TMP DP RH WIND PRES REMARKS FALMOUTH SUNNY 41 36 81 N7 30.26R HYANNIS PTSUNNY 50 33 52 N13 30.22R CHATHAM SUNNY 48 34 58 VRB5 30.24R PROVINCETOWN MOSUNNY 48 32 53 N15 30.25R NANTUCKET SUNNY 49 34 56 N20 30.22R MARTHAS VNYRD SUNNY 46 39 76 N9 30.24R $$ MAZALL-171300- CENTRAL AND WESTERN MASSACHUSETTS CITY SKY/WX TMP DP RH WIND PRES REMARKS WORCESTER CLEAR 38 27 64 NW10 30.26R WCI 31 6HR MIN TEMP: 35; 6HR MAX TEMP: 38; FITCHBURG CLEAR 40 33 76 NW7 30.30R ORANGE PTCLDY 30 30 100 E3 30.30R FOG SPRINGFIELD CLEAR 31 29 94 NE3 30.31R WESTFIELD CLEAR 33 32 96 CALM 30.32R NORTH ADAMS FOG 29 29 100 CALM 30.33R VSB 1/2 PITTSFIELD CLEAR 32 28 85 CALM 30.28R $$ RIZALL-171300- RHODE ISLAND CITY SKY/WX TMP DP RH WIND PRES REMARKS PROVIDENCE PTCLDY 41 34 76 N9 30.29R 6HR MIN TEMP: 38; 6HR MAX TEMP: 42; NEWPORT CLEAR 43 35 73 N12G17 30.27R BLOCK ISLAND CLEAR 44 36 73 N13G22 30.28R SMITHFIELD CLEAR 36 34 92 NW6 30.29R WCI 31 WESTERLY CLEAR 40 33 76 VRB5 30.30R $$ CTZALL-171300- CONNECTICUT CITY SKY/WX TMP DP RH WIND PRES REMARKS BRADLEY INTL CLEAR 38 31 76 N7 30.31R 6HR MIN TEMP: 35; 6HR MAX TEMP: 41; HARTFORD CLEAR 39 33 79 NE3 30.32R BRIDGEPORT CLEAR 41 35 79 N7 30.32R DANBURY CLEAR 36 33 89 CALM 30.33R GROTON CLEAR 40 33 76 N5 30.30R NEW HAVEN PTCLDY 36 35 96 CALM 30.32R CHESTER FAIR 39 34 81 NW5 30.30R MERIDEN CLEAR 35 33 92 CALM 30.32R WILLIMANTIC CLEAR 36 32 85 CALM 30.31R OXFORD CLEAR 35 32 88 NW7 30.30R WCI 29 $$ MEZ002-015-021-024-NHZ003-005-008-011-012-014-VTZ005-008-171300- NORTHERN NEW ENGLAND CITY SKY/WX TMP DP RH WIND PRES REMARKS PORTLAND ME PTCLDY 36 32 85 W7 30.27R WCI 30 6HR MIN TEMP: 33; 6HR MAX TEMP: 42; BANGOR ME MOSUNNY 34 30 85 CALM 30.23R CONCORD NH CLEAR 30 28 92 CALM 30.29R MANCHESTER NH CLEAR 39 32 76 N3 30.28R NASHUA NH CLEAR 35 32 88 NW7 30.30R WCI 29 PORTSMOUTH NH CLEAR 38 34 86 W3 30.27R JAFFREY NH CLEAR 30 29 96 CALM 30.28R KEENE NH CLEAR 27 26 96 CALM 30.32R BURLINGTON VT CLEAR 33 30 88 CALM 30.29R MT. WASHINGTON NOT AVBL $$ NYZ052-076-171300- EASTERN NEW YORK CITY SKY/WX TMP DP RH WIND PRES REMARKS ALBANY CLEAR 33 30 88 CALM 30.34R 6HR MIN TEMP: 31; 6HR MAX TEMP: 38; NEW YORK CITY PTCLDY 46 34 62 N12 30.33R 6HR MIN TEMP: 45; 6HR MAX TEMP: 48; $$ ANZALL-171300- MARINE OBSERVATIONS STATION/POSITION TIME TEMP WIND PRES VSBY WAVE AIR SEA DIR/SP/G HT/PER (UTC) (F) (DEG/KT/KT) (MB) (MI) (FT/S) BOSTON BUOY 1150 47 59 340/ 16/ 19 1023.3R 4/ 6 BUZZARDS BAY 1100 44 360/ 24/ 27 1023.7R NANTUCKET SOUND 1150 51 62 10/ 19/ 25 1023.0R 3/ 4 MASS BAY-STELLWA 1104 47 340/ 16/ 17 1023.4R ISLE OF SHOALS 1100 42 320/ 12/ 14 1024.2R S OF BLOCK IS NOT AVBL $$ ......................KEY......................... SKY/WX - SKY CONDITION/PRESENT WEATHER TMP - TEMPERATURE IN FAHRENHEIT DWPT - DEWPOINT IN FAHRENHEIT RH - RELATIVE HUMIDITY IN PERCENT WIND - DIRECTION AND SPEED IN MPH PRES - MEAN SEA LEVEL PRESSURE IN INCHES OF HG WCI - WIND CHILL INDEX VSB - VISIBILITY IN MILES HX - HEAT INDEX TC - TEMPERATURE IN CELSIUS VRB - VARIABLE WIND DIRECTION N/A - NOT AVAILABLE

USA.gov is the U.S. government's official web portal to all federal, state and local government web resources and services.